User: anonymous   Login
Location: Newark
(33.6439°N, 114.9881°W)
Time: 05:28:33
(UTC+00:00)
Language:

A-11 Canister half - Orbit

View from above orbital plane
View from above orbital plane
View from above satellite
View from above satellite

Ground track
Ground track

The orbit data is extracted from the following two-line orbital elements,

1    51U 60009C   19285.76537191 -.00000152  00000-0 -64888-3 0  9992
2    51  47.2150  36.7919 0108137 144.3658 216.4409 12.18276751633764
Epoch (UTC): 12 October 2019 18:22:08
Eccentricity: 0.0108137
inclination: 47.2150°
perigee height: 1514 km
apogee height: 1686 km
right ascension of ascending node: 36.7919°
argument of perigee: 144.3658°
revolutions per day: 12.18276751
mean anomaly at epoch: 216.4409°
orbit number at epoch: 63376

The dashed part of the orbit path shows where the satellite is in the earth's shadow,  

DLR